Regional Weather Roundup
Issued by NWS Pendleton, OR

Home | Current Version | Previous Version | Text Only | Print | Product List | Glossary On
Versions: 1 2 3 4 5 6 7 8 9 10 11 12 13 14 15 16 17 18 19 20 21 22 23 24 25 26 27 28 29 30 31 32 33 34 35 36 37 38 39 40 41 42 43 44 45 46 47 48 49 50
491
ASUS46 KPDT 010210
RWRPDT
PENDLETON REGIONAL WEATHER ROUNDUP
NATIONAL WEATHER SERVICE PENDLETON OREGON
700 PM PDT WED AUG 31 2016

NOTE: FAIR INDICATES FEW OR NO CLOUDS BELOW 12,000 FEET WITH NO
SIGNIFICANT WEATHER AND/OR OBSTRUCTIONS TO VISIBILITY.

# INDICATES UNOFFICIAL STATION AND DATA

WAZ520-010310-
EAST SLOPES OF WASHINGTON CASCADES

CITY            SKY/WX      TMP DP  RH  WIND    PRES   REMARKS
#CLE ELUM HS    N/A         62  51  67  W7      29.90S
#CLE ELUM 2NW   N/A         61  50  67  SW6     N/A
#GLENWOOD       N/A         67  52  59  SW2     29.90F
#NELSON 3SW     N/A         59  50  72  CALM    30.09R
#NILE           N/A         66  50  56  W2      29.13R
#RONALD 2NW     N/A         65  N/A N/A NW2     29.86R
#TEANAWAY 4NE   N/A         65  54  68  SW3     N/A
#TROUT LAKE 1NE N/A         65  53  65  W5      29.91S
$$

WAZ521-010310-
SIMCOE HIGHLANDS

CITY            SKY/WX      TMP DP  RH  WIND    PRES   REMARKS
#CENTERVILLE 1SWN/A         69  51  53  W20     29.83S
#GOLDENDALE 1NE N/A         71  34  26  SW7     N/A
#GOLDENDALE 4W  N/A         72  58  61  W22     29.95S
#LYLE 6NE       N/A         69  55  61  W8      29.86F
$$

WAZ026-010310-
KITTITAS VALLEY

CITY            SKY/WX      TMP DP  RH  WIND    PRES   REMARKS
ELLENSBURG AP   MOCLDY      68  50  53  NW28G37 29.89S
#ELLENSBURG CWU N/A         66  51  58  NW16    29.78R
#ELLENSBURG 3NE N/A         65  52  63  N12G25  29.89R
#ELLENSBURG     N/A         69  54  59  NW10    N/A
#ELLENSBURG 1E  N/A         66  N/A N/A NW5     N/A
#KITTITAS 4N    N/A         69  51  53  W14     29.90S
#KITTITAS 3S    N/A         67  52  59  NW15    29.80R
#THORP 6N       N/A         62  51  67  W13     29.88R
$$

WAZ027-010310-
YAKIMA VALLEY

CITY            SKY/WX      TMP DP  RH  WIND    PRES   REMARKS
SUNNYSIDE AP    CLEAR       76  48  37  SW14    29.83R
YAKIMA AIRPORT  PTCLDY      79  49  35  VRB6    29.85R
YAKIMA-VAGABOND N/A         74  49  41  N8      29.85R
#GRANDVIEW      N/A         80  44  28  W2      29.81S
#MABTON         N/A         77  51  40  W5      29.82R
#NACHES 2SW     N/A         71  53  53  W7      29.87S
#TERRACE HTS    N/A         76  52  43  N5      29.78R
#TOPPENISH      N/A         77  51  40  W6      29.72S
#WEST VALLEY    N/A         77  49  37  W2      29.80R
#WHITE SWAN 5E  N/A         77  51  40  SW10    29.82R
#WILEY CITY 3W  N/A         77  39  25  W1      29.83R
$$

WAZ028-010310-
LOWER COLUMBIA BASIN...WASHINGTON

CITY            SKY/WX      TMP DP  RH  WIND    PRES   REMARKS
PASCO           CLEAR       85  48  28  E7      29.79F
PROSSER AWOS    N/A         77  50  39  W13     29.85R
RICHLAND AWOS   CLEAR       82  51  34  W7      29.80R
#BENTON CITY    N/A         78  51  39  W5      29.69R
#CONNELL 5N     N/A         81  44  27  CALM    29.79F
#CONNELL 5NW    N/A         77  51  40  CALM    29.74F
#ELTOPIA 6NW    N/A         76  56  50  CALM    28.79S
#KAHLOTUS       N/A         80  42  26  W10     29.78S
#KENNEWICK 3S   N/A         82  51  34  N6      29.77F
#SAGEMOOR 2W    N/A         78  59  52  CALM    29.64S
#TOUCHET 2S     N/A         84  51  32  CALM    29.77S
#WEST PASCO     N/A         83  55  38  E1      29.75F
$$

WAZ029-010310-
FOOTHILLS OF THE BLUES...WASHINGTON

CITY            SKY/WX      TMP DP  RH  WIND    PRES   REMARKS
WALLA WALLA AP  PTCLDY      78  39  25  SW8     29.85S
#CLYDE 6NW      N/A         79  46  31  SW2     29.78S
#DAYTON SCHOOL  N/A         78  38  24  CALM    29.87R
#LOWDEN 2SE     N/A         82  57  43  CALM    29.78S
#PLEASANT VIEW 1N/A         77  41  28  SW7     29.83R
#PRESCOTT       N/A         79  48  34  CALM    29.80R
#WALLA WALLA U  N/A         82  48  31  CALM    29.80R
#WHITMAN MISSIONN/A         82  50  33  CALM    29.81R
$$

WAZ030-010310-
BLUE MOUNTAINS...WASHINGTON

CITY            SKY/WX      TMP DP  RH  WIND    PRES   REMARKS
#DIXIE 5SE      N/A         70  47  44  W6      29.87S
$$

ORZ009-041-WAZ024-010310-
COLUMBIA RIVER GORGE

CITY            SKY/WX      TMP DP  RH  WIND    PRES   REMARKS
HOOD RIVER AP   PTCLDY      68  55  63  NW17G26 29.94S
THE DALLES AP   PTCLDY      73  53  49  NW17    29.91R
#LYLE           N/A         72  57  59  W18G26  29.91S
#MARYHILL 2W    N/A         N/A N/A N/A CALM    N/A
#MOSIER 1S      N/A         68  44  42  NW3     29.91S
#MURDOCK        N/A         72  58  61  NW16G25 29.86R
#RUFUS DOT      N/A         78  55  45  NW22    N/A
#SMITHVILLE     N/A         74  56  53  N13     29.84R

$$

ORZ510-010310-
NORTH CENTRAL OREGON

CITY            SKY/WX      TMP DP  RH  WIND    PRES   REMARKS
#ANTELOPE       N/A         71  50  47  NW3     29.70R
#COW CYN RST AREN/A         70  N/A N/A W10     N/A
#DUFUR 9E       N/A         64  52  65  NW20G26 29.94S
#GRASS VALLEY 1SN/A         67  52  59  W13     29.91R
#KENT DOT       N/A         68  46  45  N16     N/A
#MAUPIN SCHOOL  N/A         74  57  55  W10     29.95R
#SHANIKO 5WSW   N/A         69  44  40  N18     N/A
#TYGH VALLEY 2NEN/A         74  53  48  N7      29.86R
#WAPANITIA AIRPON/A         69  52  55  W15G26  29.88S
#WASCO DOT      N/A         71  52  51  W16     N/A
#WASCO 5NE      N/A         69  51  53  W13     29.85S
$$

ORZ511-010310-
CENTRAL OREGON

CITY            SKY/WX      TMP DP  RH  WIND    PRES   REMARKS
BEND AIRPORT    PTCLDY      68  45  44  N10     29.98R
MADRAS AIRPORT  PTCLDY      75  46  36  NW8     29.97R
PRINEVILLE AP   CLEAR       70  45  41  W16G29  29.97R
REDMOND AIRPORT PTCLDY      71  44  38  NW17    29.96R
#ASHWOOD SCHOOL N/A         74  47  38  NW7     29.91R
#BEND 1SW       N/A         71  45  39  W2      N/A
#BEND-AWBREY    N/A         74  48  40  E1      29.84R
#CULVER         N/A         71  47  42  NW6     29.80R
#CULVER 8W      N/A         71  47  42  SW3     29.97R
#LAKE BILLY CHINN/A         72  N/A N/A W20     29.98R
#MADRAS 4S      N/A         71  14  11  W8      30.04R
#POWELL BUTTE   N/A         71  48  44  NW9     29.85S
#PRINEVILLE 3N  N/A         71  48  44  NW12    29.83R

$$


ORZ509-010310-
EAST SLOPES OF OREGON CASCADES

CITY            SKY/WX      TMP DP  RH  WIND    PRES   REMARKS
SISTERS AWOS    N/A         68  46  45  SW10G26 29.97R
#BLUE BOX PASS  N/A         54  N/A N/A NW2     N/A
#CAMP SHERMAN   N/A         67  47  49  N2      30.01R
#LA PINE 4NW    N/A         65  46  50  N1      29.95R
#LAVA BUTTE DOT N/A         68  38  33  SW3     N/A
#SISTERS AIRPOR N/A         68  54  61  N14G26  30.17S
#SISTERS ODOT   N/A         69  N/A N/A SW6     N/A
#SISTERS 3N     N/A         67  46  47  W2      29.97S
#SUTTLE LK DOT  N/A         58  47  67  SE1     N/A
#TUMALO 3W      N/A         68  46  45  N9      29.73R
#WANOGA BUTTE D N/A         58  41  53  NW8     N/A

$$

ORZ044-010310-
LOWER COLUMBIA BASIN...OREGON

CITY            SKY/WX      TMP DP  RH  WIND    PRES   REMARKS
HERMISTON       CLEAR       81  50  34  SW8     29.82S
#BOARDMAN SCHOOLN/A         81  52  37  SW13    29.80R
#BOARDMAN 8SW   N/A         81  54  39  W14     29.80R
#ECHO 8SW       N/A         80  50  35  W10     29.85R
#I-84 EX 198 DOTN/A         81  55  41  E15     N/A
#UMATILLA       N/A         82  52  35  SW8     29.72S
$$

ORZ507-010310-
NORTHERN FOOTHILLS OF THE BLUES

CITY            SKY/WX      TMP DP  RH  WIND    PRES   REMARKS
PENDLETON AIRPT PTCLDY      78  43  29  W15     29.87R
#ADAMS 3WNW     N/A         78  46  32  W1      29.82R
#ATHENA         N/A         78  47  34  W2      29.85R
#CAYUSE         N/A         78  46  32  W12     29.80S
#HELIX SCHOOL   N/A         78  45  31  N1      29.83
#HELIX 3N       N/A         75  42  31  W6      29.86S
#HOLDMAN 5SE    N/A         78  48  35  W7      29.86S
#HOLDMAN 6E     N/A         78  45  31  E7      29.63S
#M-F GROVE ELEM N/A         81  45  28  CALM    29.83S
#M-FREEWATER 5SEN/A         79  52  39  CALM    29.86R
#PENDLETON DNTN N/A         80  43  27  NW3     29.86S
#PDT AQUATIC CTRN/A         79  45  30  W3      29.90R
#PDT SUNRIDGE   N/A         80  47  31  NW3     29.87R
#PENDLETON 7NW  N/A         78  52  40  W7      32.44S
#PILOT ROCK 1S  N/A         76  42  30  NW1     29.89R
#PILOT ROCK     N/A         78  46  32  N1      29.89R
#TUTUILLA       N/A         80  45  29  CALM    29.84S
#UMAPINE 2E     N/A         80  53  39  CALM    29.80S
#WESTON SCHOOL  N/A         77  40  26  E2      29.71S

$$

ORZ508-010310-
SOUTHERN FOOTHILLS OF THE BLUES

CITY            SKY/WX      TMP DP  RH  WIND    PRES   REMARKS
LEXINGTON       CLEAR       73  48  41  W16     29.94R
#AJAX           N/A         66  47  50  SW8     27.70R
#CONDON SCHOOL  N/A         66  52  61  NW9     29.92R
#CONDON 5W      N/A         62  49  62  NW13    29.95R
#FOSSIL SCHOOL  N/A         70  50  49  N8      29.91R
#HEPPNER EOC    N/A         72  49  44  W12     29.79R
#HEPPNER 4NE    N/A         70  48  46  W14     29.84R
#LEXINGTON 2SE  N/A         75  51  43  W14     29.88R
#MIKKALO        N/A         69  48  47  W15G25  30.04R
#OLEX 4N        N/A         72  52  49  W17G29  29.88R
#RUGGS 5NE      N/A         70  46  42  W14     30.14R
#RUGGS 2SW      N/A         68  48  49  NW15    29.87R

$$

ORZ502-503-010310-
BLUE MOUNTAINS

CITY            SKY/WX      TMP DP  RH  WIND    PRES   REMARKS
MEACHAM         PTCLDY      69  38  32  VRB3    29.98S
#BATTLE MTN DOT N/A         68  43  40  N5      N/A
#CUTSFORTH PARK N/A         65  44  46  CALM    29.77R
#HARDMAN 10S    N/A         64  45  50  N2      29.94R
#HEPPNER 15SE   N/A         64  45  50  W3      25.53R
#LADD CYN SMT   N/A         76  44  32  NW8     N/A
#LADD CREEK ODOTN/A         77  48  36  SW1     N/A
#LONG CREEK HS  N/A         74  41  30  N7      29.94R
#N POWDER DOT   N/A         77  48  36  N16     N/A
#PIKES PEAK     N/A         69  41  36  W7      27.99S
#TOLLGATE       N/A         61  41  48  CALM    29.89S
#TROY SCHOOL    N/A         83  47  28  CALM    29.61R
#UKIAH          N/A         72  44  37  N6      29.76R
#WESTON 4E      N/A         72  42  34  W1      29.80S
$$

ORZ505-010310-
JOHN DAY BASIN

CITY            SKY/WX      TMP DP  RH  WIND    PRES   REMARKS
JOHN DAY        CLEAR       79  37  22  NW14    29.92R
#DAYVILLE SCHOOLN/A         83  38  20  N5      29.84R
#MITCHELL       N/A         76  49  39  NW6     30.10R
#MITCHELL 8NW   N/A         75  39  27  N3      30.01R
#MONUMENT HS    N/A         79  39  24  N15     29.79R
#MT. VERNON 5SE N/A         75  39  27  W1      29.89R
#SPRAY SCHOOL   N/A         78  N/A N/A N7      N/A
$$

ORZ506-010310-
OCHOCO AND JOHN DAY HIGHLANDS

CITY            SKY/WX      TMP DP  RH  WIND    PRES   REMARKS
#BUCK CREEK DOT N/A         81  31  16  SW8     N/A
#HORSE RIDGE DO N/A         70  39  32  NW16    N/A
#KEYES SMT DOT  N/A         72  39  30  W7      N/A
#PAULINA SCHOOL N/A         79  36  21  NW8     N/A
#PINE MTN OBS   N/A         57  40  53  NW9G25  N/A
#PRAIRIE CITY   N/A         84  34  17  NW1     30.03
#SENECA         N/A         80  N/A N/A CALM    N/A
#SENECA 9NW     N/A         74  34  23  CALM    29.79R
$$

ORZ049-010310-
GRANDE RONDE VALLEY

CITY            SKY/WX      TMP DP  RH  WIND    PRES   REMARKS
LA GRANDE       PTCLDY      75  37  25  NW13    29.90R
#COVE           N/A         76  46  34  N7      29.94R
#COVE SCHOOL    N/A         75  42  31  CALM    29.92R
#ELGIN 3N       N/A         77  35  22  CALM    29.88S
#ELGIN 1E       N/A         77  41  28  CALM    N/A
#IMBLER SCHOOL  N/A         73  41  31  N5      29.86S
#ISLAND CITY 4N N/A         65  63  93  CALM    30.00S
#LADD CYN DOT   N/A         78  49  36  NW9     N/A
#LA GRANDE ELEM N/A         74  42  32  W2      29.93R
#UNION 1S       N/A         77  44  31  N6      29.70R
$$

ORZ050-010310-
WALLOWA COUNTY

CITY            SKY/WX      TMP DP  RH  WIND    PRES   REMARKS
JOSEPH AIRPORT  PTCLDY      72  37  28  N5      29.94R
#IMNAHA SCHOOL  N/A         81  42  25  N5      29.80R
#IMNAHA 10S     N/A         83  41  23  N3      29.84R
#JOSEPH 3N      N/A         72  40  31  NW7     29.97R
#JOSEPH 3W      N/A         66  45  47  CALM    29.84R
#LOSTINE        N/A         74  43  33  N3      29.59R
#LOSTINE 3SE    N/A         72  40  31  N8      29.91R
#MT HOWARD 8000 N/A         59  36  42  CALM    30.21S
#PROMISE 1S     N/A         73  43  34  S5      29.90R
#WALLOWA SCHOOL N/A         76  41  28  N2      29.87R



$$



USA.gov is the U.S. government's official web portal to all federal, state and local government web resources and services.